Theta_e
328 329 332 334 336 340 341 343 344 345 346 346 347 348 349 348 349 349 348 348 348 348 349 348 348 349 349 349 349 349 349 349 349 349 349 349 349 349 349 348 348 350 350 349 349 349 349 348 349 349 349 349 349 349 349 349 349 349 348 348 349 349 349 349 351 351 351 351 352 351 351 352 354 356 355 354 352 352 353 353 352 353 354 351 352
326 329 332 333 335 337 338 340 342 343 344 344 345 346 346 347 348 348 348 348 348 348 348 348 348 349 349 348 349 349 348 348 348 348 348 348 348 348 347 348 348 349 350 349 349 349 349 349 349 348 348 348 348 349 349 349 349 349 349 349 350 350 350 350 350 351 351 351 351 350 350 351 352 355 356 356 354 353 354 350 350 352 352 352 350
328 329 331 332 333 334 336 338 339 340 341 342 343 343 344 344 344 345 346 347 347 348 348 348 348 348 348 348 348 348 348 348 348 348 348 348 347 347 347 347 347 348 349 349 349 349 349 349 349 349 349 348 349 348 348 348 348 348 349 349 350 350 350 351 351 351 351 351 350 349 348 348 353 355 355 356 356 354 354 352 351 350 352 352 351
326 327 329 333 331 331 333 335 337 338 338 339 340 341 341 342 343 343 344 344 345 345 346 346 347 347 347 348 347 347 347 347 348 348 348 347 347 346 346 346 347 347 348 349 349 348 348 349 349 349 347 347 348 348 347 348 348 348 348 348 349 349 349 350 350 351 350 351 350 348 345 340 349 355 355 355 354 353 354 353 351 352 354 354 352
325 326 329 331 332 330 332 333 334 335 336 337 337 338 339 340 341 341 341 342 343 344 344 344 345 346 345 345 345 346 347 347 347 347 347 347 347 346 346 346 346 347 347 349 348 348 348 349 348 348 347 347 347 347 347 347 347 347 347 348 348 349 349 349 349 349 350 349 349 347 342 337 348 356 355 354 353 352 354 352 352 354 354 354 354
323 325 327 329 329 329 330 331 332 333 334 335 336 336 337 338 338 338 339 341 341 342 343 342 343 343 343 344 346 345 345 344 345 345 345 345 346 346 345 346 346 347 347 348 348 348 348 347 347 347 347 346 347 347 347 347 347 346 347 348 349 349 348 348 349 350 349 346 345 350 345 340 339 350 352 352 354 353 353 349 351 353 354 354 354
323 324 326 327 328 327 329 330 331 332 333 334 334 335 335 335 335 336 337 338 339 339 339 340 340 341 341 341 341 341 341 340 340 341 342 342 342 342 341 342 343 343 345 347 346 347 347 347 347 347 347 347 346 346 346 347 347 347 346 347 348 348 348 348 349 348 346 345 346 344 340 340 341 344 348 350 352 353 353 352 352 352 353 354 354
322 323 324 324 326 326 327 329 330 331 331 332 332 333 333 333 333 334 335 335 336 336 336 337 337 337 338 338 337 337 337 336 337 337 338 338 338 338 338 337 338 340 342 345 347 347 346 345 347 347 347 346 344 344 345 346 346 346 346 347 347 347 347 347 347 346 344 347 346 346 344 344 343 345 347 346 350 352 353 353 352 353 352 353 353
318 320 322 323 324 324 326 327 329 329 330 330 330 330 330 331 331 332 332 333 332 333 333 334 334 334 335 335 335 334 333 333 333 333 334 335 335 335 335 335 335 336 338 341 343 344 343 343 343 343 344 343 342 342 344 345 345 345 345 345 345 346 346 346 346 343 344 344 344 345 345 345 344 344 349 344 347 348 348 351 351 351 352 353 351
317 319 320 321 323 323 325 325 327 327 328 329 328 328 328 328 328 329 329 329 330 330 330 330 331 331 332 332 332 331 330 330 330 330 331 332 332 332 332 332 332 333 335 336 338 339 340 339 340 340 340 340 338 339 340 340 342 343 344 343 343 343 342 341 339 341 344 344 344 345 346 348 345 347 347 347 347 347 349 347 348 348 350 349 349
314 316 318 318 319 321 323 325 325 325 326 326 327 327 326 326 327 327 327 327 327 327 327 327 328 328 328 328 328 328 327 327 327 328 329 329 330 330 330 330 330 330 331 333 334 335 337 337 337 338 338 337 335 334 334 335 337 340 342 342 342 341 340 338 336 340 342 343 343 344 345 345 345 346 352 348 348 349 350 347 346 348 349 350 351
310 314 316 316 316 317 321 322 323 324 324 324 325 325 325 325 325 325 326 326 325 325 325 325 325 326 326 327 327 326 325 325 325 326 327 327 327 328 327 328 328 328 329 329 330 331 333 334 335 335 335 334 333 332 331 331 331 333 334 337 338 337 335 332 336 338 341 342 343 344 344 344 343 345 351 348 349 349 350 349 351 351 350 351 351
308 309 313 315 315 314 317 320 321 322 323 323 323 323 324 323 323 323 324 324 323 323 323 323 323 324 324 323 323 323 323 322 322 322 323 324 324 324 324 324 325 325 326 326 326 328 329 330 331 332 331 330 330 329 328 328 328 329 329 329 329 328 326 327 335 337 338 340 341 343 345 345 345 348 347 347 348 349 349 349 349 351 351 351 351
306 307 309 310 311 311 313 316 318 319 320 321 321 321 321 321 321 321 321 322 322 321 320 320 321 321 321 321 322 321 321 320 320 321 321 322 322 322 321 321 322 322 322 322 322 323 324 326 326 327 327 326 326 325 325 324 324 325 326 326 326 324 323 321 326 334 338 339 340 342 342 343 343 347 346 347 348 348 348 349 349 350 351 351 351
307 308 308 308 308 309 309 312 314 316 317 318 319 319 319 319 319 319 320 320 320 319 319 318 318 318 319 319 319 319 319 319 319 319 319 320 321 321 320 320 321 320 321 321 321 321 321 322 323 322 323 323 322 322 321 320 320 321 322 322 322 321 320 316 319 326 334 338 339 340 341 343 342 348 346 346 347 348 348 349 349 349 350 350 351
308 307 307 307 308 309 308 308 310 312 313 314 315 316 316 317 317 317 317 317 317 317 316 316 315 315 316 315 316 316 317 317 317 317 317 317 318 319 319 319 320 319 320 321 320 321 321 320 321 320 320 321 320 320 319 318 318 319 319 320 319 319 319 317 317 322 327 333 336 339 340 342 342 346 345 346 347 347 347 347 348 349 350 351 351
307 306 306 307 308 306 306 307 306 308 309 310 312 312 313 314 314 314 313 313 314 314 314 313 313 313 313 313 312 312 312 313 314 315 314 315 315 315 316 317 317 318 318 318 319 319 319 318 318 319 319 319 319 319 318 318 318 318 318 319 318 317 317 316 317 322 326 332 336 337 339 340 339 347 344 345 346 346 347 347 347 347 348 349 350
307 306 305 306 306 306 306 307 308 308 308 307 308 310 311 311 311 311 311 310 311 311 310 310 310 310 309 309 308 308 309 310 310 311 311 311 311 311 313 315 315 316 316 316 316 316 316 316 316 316 316 316 316 316 316 317 317 317 317 317 316 316 316 317 318 325 333 336 338 340 339 337 342 344 344 345 346 346 346 346 346 347 346 347 348
305 303 304 304 303 305 305 307 307 307 309 308 306 306 307 308 308 308 308 308 308 308 307 306 307 307 306 305 305 305 306 306 307 307 308 307 307 307 310 312 312 313 313 313 314 315 315 315 315 315 315 315 315 315 315 315 315 315 315 314 313 313 313 314 322 327 327 328 331 336 338 337 341 342 343 345 344 344 345 345 345 345 345 345 346
304 304 303 305 304 304 305 305 306 306 307 307 306 304 303 305 305 306 306 306 306 306 305 304 304 304 303 303 304 308 308 306 305 305 305 305 304 305 307 309 310 310 311 311 312 312 313 313 313 314 313 313 313 314 314 312 312 313 313 312 312 311 313 316 320 320 321 321 325 329 333 338 340 342 343 344 343 343 343 344 345 345 345 345 345
303 303 303 304 305 305 304 305 305 306 306 306 306 305 304 304 304 303 303 303 303 303 304 304 308 307 306 306 306 306 306 305 304 304 307 305 304 304 306 307 309 308 308 310 310 310 310 311 312 312 312 312 311 312 313 310 311 311 311 312 311 312 314 314 315 315 315 318 322 326 332 334 336 338 342 343 342 342 342 342 343 344 345 344 344
301 302 303 303 303 304 305 304 305 305 305 306 306 305 305 305 306 306 305 305 304 307 305 305 307 306 306 305 304 304 305 303 303 304 305 304 305 304 305 306 307 307 307 309 309 309 310 310 310 310 310 310 310 309 309 312 312 312 312 311 314 311 311 311 311 311 313 314 319 323 329 329 333 335 337 340 341 341 342 342 342 342 343 344 344
300 301 302 302 302 303 303 302 303 304 305 306 306 305 305 305 305 305 305 306 305 304 305 304 305 305 305 305 303 304 305 304 303 303 304 307 305 304 304 304 305 305 305 307 307 307 308 308 309 309 309 307 307 308 307 308 307 308 308 309 307 308 309 309 310 310 311 313 315 320 325 325 326 329 332 333 334 337 340 341 342 342 342 343 344
300 301 301 302 303 302 303 303 303 303 303 303 305 304 304 304 304 305 305 304 305 304 304 305 305 305 305 304 303 304 305 303 307 305 307 303 304 306 306 306 304 304 303 304 304 305 306 306 306 306 306 307 305 305 305 306 306 306 307 307 306 307 308 308 308 309 310 314 314 319 323 323 323 324 325 327 329 330 333 339 341 342 342 342 343
302 302 302 301 302 302 303 303 303 303 304 303 304 303 303 303 303 303 304 303 304 304 304 304 304 304 304 303 304 304 304 303 304 303 302 302 302 302 302 301 301 302 303 302 301 302 302 303 302 303 303 304 303 304 304 304 305 305 305 305 306 307 308 308 307 307 308 309 312 316 319 319 318 320 322 323 325 327 329 332 336 338 341 341 342
302 301 301 301 301 302 302 302 302 303 303 303 303 303 303 302 303 303 303 304 304 303 303 303 303 303 303 303 303 303 303 303 303 302 302 301 300 299 300 300 300 301 300 299 300 300 300 300 300 301 301 301 302 303 303 304 304 304 304 305 305 306 307 307 307 307 308 308 309 313 315 316 315 317 318 321 323 325 327 328 330 332 335 338 341
301 301 301 300 300 301 302 302 301 302 302 303 303 300 302 303 303 302 303 302 303 303 302 302 302 302 302 302 302 301 301 301 301 301 300 300 300 299 299 300 299 299 299 298 299 299 298 298 299 299 299 300 300 301 302 303 303 303 304 305 305 305 305 306 306 306 306 307 309 312 314 315 315 316 317 319 320 322 324 325 328 329 331 334 337
301 301 301 300 300 300 301 301 301 301 302 302 301 301 302 302 302 299 302 301 302 302 301 301 302 301 301 300 301 301 300 299 299 299 299 299 299 299 299 298 298 298 298 298 297 297 297 297 298 299 298 298 299 299 300 300 302 303 303 303 304 304 304 304 305 306 306 307 307 309 312 314 315 313 315 316 319 320 322 323 325 326 328 332 335
300 300 301 299 300 300 300 300 300 300 300 300 300 300 301 301 301 301 301 301 302 301 301 301 301 300 300 300 300 300 299 299 298 298 298 298 298 298 297 297 297 297 297 296 297 296 296 296 297 297 297 297 297 298 298 299 300 300 301 302 302 302 303 304 304 305 305 305 306 307 310 312 312 312 313 315 317 319 321 322 324 325 326 326 329
301 300 300 299 299 299 299 299 300 300 300 299 300 300 300 300 301 301 300 299 301 300 301 300 300 300 299 299 299 299 298 297 297 297 297 297 297 298 297 297 296 296 296 295 295 295 295 295 296 296 296 297 296 297 297 298 298 299 299 300 300 301 302 302 303 304 304 304 305 305 308 310 312 311 311 313 315 317 318 321 322 323 325 325 326
301 300 300 299 300 299 299 299 299 300 300 299 300 299 300 300 300 300 300 300 300 300 300 300 299 299 299 299 299 298 298 298 297 297 296 297 297 296 296 296 295 295 295 295 295 295 295 295 295 295 295 296 296 296 296 296 297 298 299 299 299 299 300 301 301 302 303 303 304 304 306 308 310 311 311 311 312 314 316 318 320 322 323 323 324
300 300 300 300 299 298 298 298 298 299 299 299 300 300 299 300 300 300 299 300 299 299 299 299 298 298 299 299 298 297 297 297 297 297 296 296 295 295 296 295 295 295 294 294 294 295 295 295 296 296 296 296 295 296 297 296 296 296 297 297 298 298 298 299 300 301 301 302 303 303 304 306 307 310 310 310 312 312 313 315 316 319 321 323 325
301 301 300 300 298 298 298 298 298 299 298 298 299 299 299 299 299 299 299 299 298 299 298 298 298 298 298 298 297 297 297 296 296 296 296 295 295 295 295 295 295 294 294 294 295 294 294 294 295 295 295 295 295 295 296 295 295 295 296 296 296 296 297 298 298 299 300 301 301 302 303 304 305 307 308 310 311 311 312 312 313 315 318 320 322
300 300 300 299 298 299 299 299 298 298 298 298 298 298 299 298 299 299 298 298 298 297 298 298 297 297 297 297 297 296 296 296 295 295 295 294 295 294 294 294 294 293 293 294 293 293 293 293 293 293 294 294 293 294 294 293 294 294 295 295 296 296 296 296 296 297 299 300 301 302 302 302 302 303 306 308 309 310 310 311 311 313 315 317 319
300 299 299 299 298 298 299 297 298 298 298 298 298 298 298 298 297 298 297 298 297 297 297 297 297 297 297 296 296 295 296 295 295 294 294 294 293 293 293 293 293 293 292 293 293 293 293 292 292 292 293 293 293 293 293 292 293 293 294 294 294 295 295 296 297 297 297 299 300 301 302 302 302 303 304 303 304 306 311 311 310 311 312 313 315
299 299 299 299 297 298 298 298 298 298 297 297 298 298 297 297 297 298 297 298 296 297 297 297 297 296 296 297 296 295 295 295 294 294 293 293 293 292 293 293 293 292 292 292 292 292 292 292 292 293 291 291 291 291 292 291 292 292 293 293 294 295 295 295 296 297 298 298 299 300 301 302 302 302 303 302 302 303 306 308 308 310 311 311 313
299 299 298 298 297 298 297 298 297 298 297 297 298 298 297 297 296 296 297 296 296 296 296 296 296 296 296 296 296 294 295 294 294 293 293 293 292 292 292 293 292 292 291 291 291 292 291 292 292 292 292 290 290 290 290 291 291 291 292 292 293 294 294 295 296 296 299 298 298 299 300 301 302 303 302 303 303 304 304 307 310 310 310 310 311
299 299 299 297 296 298 297 298 297 298 297 297 297 296 296 296 296 296 295 295 296 296 296 296 296 295 295 295 295 295 294 294 293 293 292 292 292 292 292 292 292 291 291 291 291 291 292 292 290 291 291 290 289 289 289 290 291 291 291 292 292 293 294 295 296 297 297 297 298 299 300 301 301 302 302 303 303 303 304 305 307 308 308 309 311
298 298 298 297 297 297 297 297 297 297 296 297 296 296 296 296 295 296 295 295 295 295 295 295 295 295 295 295 294 294 293 293 293 293 292 291 291 292 291 292 291 291 290 290 290 291 291 291 289 289 290 290 289 289 289 290 290 290 290 290 292 293 295 296 297 297 297 298 298 300 301 301 301 302 302 303 303 304 304 304 304 304 304 306 310
297 297 297 297 296 297 296 296 296 296 296 296 296 295 294 294 294 294 294 294 294 294 294 294 295 294 295 294 294 294 294 293 293 292 292 291 291 291 291 291 291 290 290 289 289 289 289 289 288 288 288 289 290 290 290 289 289 289 289 291 292 293 293 294 294 295 297 298 298 299 299 301 301 302 303 303 303 303 303 304 303 303 304 306 308
296 296 296 296 296 296 296 295 296 296 295 294 294 294 293 293 293 293 293 293 293 294 293 294 294 294 294 294 294 293 293 293 292 292 291 291 290 290 290 290 290 290 289 289 289 289 289 289 288 289 288 287 288 289 289 289 287 287 289 289 289 291 293 294 294 295 296 297 299 299 300 300 301 301 301 302 302 302 302 303 303 303 303 304 304
295 295 295 295 296 296 295 296 296 295 295 294 294 294 294 294 294 294 294 294 293 292 292 293 293 294 294 293 293 293 293 292 292 292 291 290 290 289 290 289 289 289 289 289 289 289 288 289 289 287 288 287 286 288 289 289 287 285 284 285 288 291 292 292 292 294 297 298 300 300 298 298 299 299 299 299 300 301 302 302 302 303 304 304 304
295 294 295 295 295 295 295 296 295 294 294 294 294 294 295 295 295 294 294 293 294 294 294 294 293 293 293 293 293 293 292 292 292 291 290 290 290 289 289 289 289 289 288 288 288 288 288 288 288 287 286 287 287 289 289 289 285 286 286 285 284 283 288 291 296 297 294 293 292 292 293 294 295 296 297 297 298 299 300 300 301 302 302 302 302
294 294 294 294 295 295 295 295 295 294 294 294 295 295 295 295 295 295 294 294 292 292 292 292 292 292 292 293 293 292 292 291 291 291 290 290 289 289 289 288 288 289 288 287 287 287 287 287 287 287 286 284 285 286 288 288 287 285 281 282 282 283 282 286 286 289 291 290 291 292 294 295 296 296 296 295 297 298 298 299 301 301 301 301 301
294 293 293 294 294 294 295 295 295 294 294 294 294 295 294 293 293 293 292 292 291 291 291 290 291 291 291 292 292 292 292 291 291 290 290 289 289 289 288 288 288 288 287 286 286 286 287 287 287 286 286 284 283 285 286 288 287 288 285 282 281 281 281 283 284 284 289 290 292 291 291 291 292 293 294 295 296 297 297 298 299 299 300 300 301
293 294 294 294 294 294 295 295 295 294 294 294 294 294 292 291 290 289 288 288 288 288 288 289 290 290 290 291 292 292 291 290 290 290 289 289 288 288 288 288 287 287 287 287 286 286 286 286 287 286 285 286 284 284 283 287 287 288 288 287 285 281 280 283 283 279 287 288 288 290 291 292 292 292 293 293 294 294 296 296 297 297 298 298 298
293 294 294 294 294 295 295 294 294 294 294 294 294 293 292 291 291 290 290 290 289 291 292 292 292 292 292 291 291 291 291 290 290 289 289 288 288 288 287 287 287 286 287 286 285 286 286 286 287 286 285 286 285 282 283 284 285 286 287 287 287 287 286 283 280 282 279 284 287 287 288 290 291 291 291 292 294 294 294 295 295 296 296 297 297
294 294 294 294 294 294 294 294 294 294 294 294 293 292 292 291 291 291 291 291 291 291 292 292 292 291 290 290 290 290 290 290 289 289 289 288 287 287 287 286 286 286 286 285 285 286 286 286 286 286 286 285 285 283 283 284 282 283 286 285 285 286 287 286 286 282 280 278 280 286 288 288 289 290 291 290 291 292 292 294 294 294 295 296 297
294 293 293 293 294 294 294 294 294 293 294 293 293 292 292 291 291 291 291 292 292 292 292 291 290 290 289 290 289 289 289 289 289 288 288 287 287 286 286 286 285 285 285 286 285 285 285 285 285 284 284 284 284 284 283 283 283 282 283 283 284 284 284 285 285 284 281 279 279 281 282 287 287 288 289 290 291 292 292 292 292 293 293 294 295
294 295 294 294 294 294 293 293 293 293 293 293 292 292 292 292 291 291 291 290 291 291 291 290 289 289 289 289 289 288 288 288 288 288 287 287 286 286 286 285 285 285 285 285 285 284 284 285 285 284 284 284 284 284 283 283 283 283 283 283 282 282 282 282 283 283 283 283 279 280 282 282 281 284 288 288 289 289 290 290 291 291 292 292 293
294 294 294 293 293 293 293 293 293 293 293 292 292 291 291 291 291 291 291 290 290 290 289 288 288 288 288 288 288 288 288 287 287 287 287 286 286 286 285 285 285 284 284 284 284 284 284 284 284 284 284 283 283 283 283 283 283 283 283 282 281 281 280 279 280 281 281 280 280 280 281 282 281 281 284 287 287 288 289 289 289 290 290 291 292
Wind_Speed
5 6 5 10 12 11 12 13 13 14 14 15 15 15 15 14 13 12 11 10 9 9 9 9 8 8 8 8 8 9 8 8 8 7 7 7 6 6 6 5 5 5 6 6 6 7 7 7 8 9 8 9 9 10 11 11 10 9 9 9 10 10 11 10 9 9 8 8 9 11 12 12 11 9 7 6 7 6 1 3 4 5 4 4 5
5 5 5 8 11 12 12 12 13 12 14 14 15 15 15 15 15 14 12 11 11 11 10 10 10 10 10 10 10 10 9 9 9 9 8 8 8 7 6 5 5 5 6 6 6 6 6 7 7 7 7 7 8 8 7 9 11 11 10 9 9 10 10 11 10 9 8 7 7 8 9 11 11 9 7 6 5 6 3 2 5 5 5 2 3
4 4 5 8 11 11 11 12 12 13 13 13 13 14 14 13 14 14 13 13 13 13 12 12 11 11 11 11 11 11 11 11 11 11 10 11 10 9 8 8 7 7 6 6 7 6 6 6 6 6 7 8 8 8 8 8 7 9 10 9 9 9 9 10 10 9 9 8 8 8 9 10 11 8 7 5 5 6 2 5 6 6 5 3 5
5 4 4 8 14 11 10 11 11 11 11 12 12 13 13 13 13 13 13 12 12 12 12 12 13 12 12 12 12 12 12 12 13 13 13 13 13 12 11 11 10 10 9 8 8 8 8 8 8 7 6 6 7 8 8 7 7 7 8 8 9 8 8 8 9 8 9 8 8 8 7 6 5 7 5 4 3 4 2 5 7 8 9 7 6
4 4 4 4 8 11 10 10 10 10 10 10 11 12 12 12 13 13 13 12 12 12 12 11 13 14 14 13 14 15 15 15 15 16 15 15 15 15 14 13 13 12 11 11 10 10 10 9 10 9 9 8 8 9 9 9 9 9 9 9 8 8 9 9 8 8 7 7 8 9 6 5 4 7 5 1 3 5 3 1 6 8 9 8 9
4 4 4 5 7 10 11 10 9 9 10 11 12 12 11 12 13 13 12 12 12 12 13 13 15 15 14 16 17 17 17 17 17 16 16 16 16 17 17 16 16 15 15 13 12 12 11 11 11 10 11 12 12 11 10 10 10 9 9 8 8 9 9 10 9 7 7 8 10 6 6 4 4 3 5 1 1 3 4 1 5 8 8 9 9
6 4 4 6 6 9 10 10 9 10 11 11 12 12 12 13 13 13 12 12 13 13 13 14 14 14 14 14 15 15 15 15 15 15 15 16 16 16 16 16 17 16 16 16 14 13 13 13 12 12 12 14 14 13 12 11 11 11 10 9 9 10 10 10 10 8 7 7 5 6 5 5 4 3 2 3 3 2 4 6 7 8 9 10 9
5 3 4 7 8 9 10 10 10 11 11 12 12 12 13 13 13 13 13 12 13 13 14 14 14 14 14 14 15 15 15 15 15 15 16 15 15 15 15 15 16 16 16 17 16 16 15 16 17 16 15 16 15 15 14 13 12 12 12 11 11 10 10 10 11 10 10 7 5 5 5 5 4 3 3 2 3 4 5 6 7 10 10 9 7
4 4 5 6 8 10 10 10 11 11 12 12 12 12 13 13 13 13 13 14 14 14 14 14 14 15 15 15 15 15 15 16 16 16 16 15 15 15 15 15 16 16 16 16 17 17 17 17 16 16 16 16 16 16 16 16 15 14 13 12 12 12 12 11 10 12 9 5 6 6 6 6 7 6 3 2 2 4 6 5 6 8 9 6 5
5 5 6 6 7 10 10 10 10 11 11 12 12 12 13 13 13 13 13 13 14 14 14 14 14 14 14 14 15 14 15 15 15 15 15 15 15 15 15 15 15 15 15 15 15 16 16 16 15 16 15 15 14 15 16 16 16 16 15 15 14 13 12 12 13 11 7 7 6 7 6 5 6 6 7 5 2 4 6 4 5 6 7 7 7
5 5 6 7 9 10 10 10 10 11 11 12 12 12 12 13 13 13 13 13 13 14 14 14 14 14 14 14 14 14 14 14 14 14 14 14 15 15 15 15 15 15 15 15 15 15 15 15 16 16 16 16 15 15 16 16 16 17 16 16 16 15 15 14 12 7 7 7 7 6 7 1 5 6 2 3 1 3 5 6 6 7 8 8 6
6 5 6 6 9 11 10 10 10 10 11 11 11 12 12 12 13 13 13 13 13 13 13 13 13 13 13 14 14 14 14 14 14 14 14 14 14 14 15 15 15 15 15 15 15 15 15 15 15 15 16 15 16 16 16 16 16 16 16 16 16 16 16 18 10 7 8 8 8 6 7 7 7 6 4 3 3 5 5 7 8 10 11 9 8
6 5 6 6 6 9 9 10 10 10 10 11 11 12 12 12 12 12 13 13 13 13 13 13 13 13 14 14 14 14 14 14 14 14 14 14 14 14 14 14 14 14 14 15 15 15 15 15 15 15 15 15 15 15 15 16 16 15 15 15 15 16 16 16 8 8 8 8 7 7 7 6 6 6 6 7 7 7 8 9 10 11 12 11 11
6 6 6 6 5 8 9 10 10 10 10 11 11 12 12 12 12 12 12 13 13 13 13 13 13 14 14 14 14 14 14 14 14 13 13 13 13 13 13 13 13 13 13 13 13 13 14 14 14 14 14 14 14 14 14 14 14 14 14 14 13 14 15 11 11 9 8 8 8 8 8 6 7 3 3 4 6 8 9 10 11 11 12 13 12
6 6 5 5 6 6 9 9 9 10 10 11 11 11 12 12 12 12 12 12 13 13 13 13 13 14 14 14 14 14 14 14 14 14 13 13 13 13 13 13 13 13 13 13 13 13 13 13 14 14 14 13 13 13 13 13 12 12 12 12 13 13 12 8 8 8 9 8 7 8 7 7 6 3 3 6 9 10 10 11 12 12 12 11 11
6 6 5 5 5 5 5 7 8 9 10 10 11 11 11 12 12 12 12 12 12 12 13 13 13 14 14 14 14 14 14 14 14 14 14 13 14 14 13 13 13 13 13 13 13 13 13 13 13 14 14 14 14 14 14 13 12 11 11 10 10 11 10 7 7 8 8 8 8 7 7 7 7 5 5 7 8 9 10 11 12 13 13 12 12
5 5 5 5 4 4 5 5 6 9 10 11 11 11 11 12 12 12 12 12 12 12 12 12 13 13 13 13 13 13 13 14 14 14 14 14 14 14 14 13 13 13 13 13 13 13 13 13 13 13 13 13 13 14 15 15 14 13 13 12 11 11 10 10 6 8 8 8 8 7 7 7 8 1 3 5 8 10 11 12 13 14 14 13 12
6 5 5 5 4 3 4 5 5 5 7 9 10 11 10 11 12 12 12 11 12 12 12 12 12 11 11 10 11 11 13 12 13 13 14 15 14 14 15 15 14 14 14 13 13 12 12 12 12 12 12 12 12 12 12 12 13 13 14 14 13 13 11 11 7 8 7 7 7 7 7 8 4 4 5 7 9 11 12 13 14 14 15 15 14
6 6 5 5 5 5 5 4 3 4 4 4 5 7 10 10 11 11 10 10 11 11 11 11 10 10 9 8 6 7 8 10 8 10 10 13 12 11 13 13 13 14 14 13 14 14 14 13 13 13 12 12 12 11 11 9 9 11 12 13 14 12 14 10 7 5 7 7 7 7 7 8 5 7 8 9 12 13 14 13 14 14 15 15 16
5 5 6 5 5 5 4 4 4 3 4 5 5 6 8 9 9 9 9 9 9 8 8 7 7 7 5 3 2 3 5 7 7 6 8 8 11 9 10 10 11 11 12 10 10 11 12 13 13 14 14 14 14 12 9 7 8 10 10 13 13 14 8 5 6 6 6 6 7 7 7 10 11 10 10 11 12 14 15 16 16 15 15 16 16
5 7 7 6 6 6 6 4 4 5 5 5 5 4 4 6 7 7 7 7 6 6 5 5 3 5 4 3 4 5 5 5 7 6 6 6 8 9 11 11 11 11 13 10 10 10 12 10 11 12 13 13 13 14 8 8 10 9 10 10 12 7 5 6 6 6 7 7 7 7 6 9 10 10 11 12 14 16 15 16 16 17 16 16 16
8 7 8 8 7 6 6 6 5 5 5 4 3 3 4 3 4 4 3 3 4 3 5 4 5 5 4 4 5 5 4 5 6 7 5 6 7 7 10 11 12 12 15 13 11 11 14 12 11 13 13 10 12 6 6 6 8 7 8 11 7 4 6 7 7 7 7 7 7 6 8 11 11 12 13 14 15 16 16 16 17 17 17 17 17
9 8 8 10 7 6 7 6 6 6 6 5 3 3 4 3 4 3 3 3 3 4 4 4 5 5 4 4 4 4 4 4 5 4 3 5 4 3 8 8 10 9 13 11 11 11 14 11 12 13 13 11 7 6 6 6 6 9 8 6 5 5 6 7 6 6 7 7 7 9 9 11 12 13 14 15 15 16 16 18 18 18 18 18 18
10 9 8 8 8 7 7 6 6 6 5 5 4 4 4 4 3 2 2 2 2 2 3 3 4 4 4 4 4 4 4 4 2 1 3 5 5 5 5 6 10 8 13 8 9 10 12 10 10 11 8 6 6 6 7 6 7 7 6 6 5 6 6 6 6 6 7 7 6 10 9 10 12 14 15 16 17 17 17 17 18 19 18 19 19
9 9 8 9 10 8 7 6 6 6 5 4 4 4 4 3 3 2 2 2 1 1 2 2 3 3 3 3 3 3 3 4 5 5 5 5 6 6 6 6 6 6 9 6 6 7 7 6 6 7 6 6 6 6 6 7 6 7 7 6 7 7 6 6 6 6 6 7 7 10 10 11 14 15 16 17 18 18 18 18 18 19 19 19 20
9 9 10 9 10 9 8 7 7 6 6 5 5 4 4 4 4 3 3 2 2 1 1 1 2 2 3 2 2 3 3 3 4 5 5 5 5 6 5 5 6 6 7 6 6 7 7 6 7 7 6 6 7 7 7 7 7 7 7 7 7 6 6 6 6 6 7 7 7 11 11 13 16 17 17 18 18 18 18 19 19 19 19 19 19
10 10 9 9 10 10 10 8 7 7 7 5 4 5 4 3 3 3 3 3 2 2 2 2 3 3 2 2 2 3 3 3 4 4 4 4 4 5 5 5 6 5 6 6 7 7 7 6 7 7 7 7 7 7 7 7 7 8 7 7 7 7 7 6 6 7 7 7 8 11 11 11 15 16 16 17 18 19 19 19 19 20 20 20 20
9 10 10 10 10 11 11 10 8 8 7 6 6 5 4 4 3 3 2 2 2 2 2 2 3 3 3 3 2 2 2 3 3 4 4 4 4 5 5 5 5 5 6 6 6 7 7 7 7 7 8 7 8 8 7 8 8 7 8 8 8 8 7 7 7 7 7 7 8 10 11 11 11 16 18 18 18 19 19 20 20 21 21 21 21
11 12 10 10 11 11 12 11 9 9 7 7 6 5 5 4 4 4 3 4 2 2 2 3 2 3 3 3 2 2 2 3 3 4 3 4 4 5 5 5 5 5 6 6 6 7 7 7 6 7 7 7 7 7 7 8 7 7 8 8 8 8 8 8 8 8 8 8 8 9 11 11 14 17 18 18 19 19 19 20 20 21 21 21 21
12 12 11 10 11 11 12 12 10 9 8 7 6 5 5 5 5 4 4 4 3 3 3 2 2 3 3 3 3 3 3 3 4 4 4 4 4 4 5 5 5 5 5 6 6 6 7 6 6 7 7 7 7 7 7 7 8 8 7 8 8 8 8 8 8 8 8 8 9 9 12 12 12 16 19 19 19 19 19 20 20 20 21 22 22
12 14 11 10 10 12 11 11 10 9 8 7 6 6 6 5 5 4 4 3 4 4 3 3 2 3 3 3 3 4 3 4 4 4 4 4 4 4 4 4 4 5 5 5 5 6 6 6 6 6 6 7 6 7 7 7 7 7 7 8 8 8 8 8 8 8 9 9 9 9 11 14 13 15 17 18 19 19 19 20 20 20 21 21 22
14 14 11 10 11 13 12 11 10 9 8 8 6 6 6 5 5 4 4 4 4 3 3 3 3 3 3 3 3 4 3 3 3 2 3 3 3 4 4 4 5 4 5 5 6 6 6 6 6 6 7 6 7 6 6 7 7 7 8 9 8 8 8 8 9 9 9 9 9 10 9 10 13 13 14 17 19 20 20 20 20 20 21 20 21
11 13 12 12 13 13 11 11 10 10 9 8 7 6 5 5 5 4 4 4 3 3 3 2 3 3 3 3 4 3 2 3 2 3 3 3 4 4 4 4 4 5 6 6 7 6 6 6 6 6 6 6 7 6 6 7 8 8 8 8 8 9 9 8 9 9 9 9 9 9 10 10 11 12 14 15 17 19 18 19 19 20 21 22 21
11 11 13 13 11 8 8 8 10 10 10 8 7 6 6 5 5 4 4 5 4 3 3 3 3 3 4 4 3 3 3 3 3 3 4 4 4 4 4 4 4 6 6 6 6 6 6 6 7 7 7 7 7 7 7 8 7 8 8 8 8 8 8 9 9 10 10 10 9 10 10 10 9 9 8 12 13 15 18 19 18 19 20 20 21
11 12 15 14 13 11 8 8 10 10 10 8 8 7 6 5 5 4 5 4 4 3 3 3 3 3 4 4 3 3 3 3 3 3 3 3 3 3 4 4 5 6 5 5 6 6 6 6 7 7 7 7 7 7 8 8 9 9 8 8 9 9 9 9 10 10 10 10 10 10 10 10 9 9 8 8 9 11 11 14 17 18 20 21 22
15 13 13 13 13 12 11 9 11 11 10 8 8 6 6 6 5 5 5 4 4 3 3 3 3 3 3 3 4 3 3 3 2 2 1 2 2 3 3 4 5 5 5 6 5 6 6 6 7 7 8 8 8 8 8 9 9 9 9 9 9 10 9 9 10 10 10 10 10 10 9 9 9 9 9 9 9 10 13 15 18 18 19 20 21
15 14 14 14 14 13 12 11 13 12 11 10 8 7 7 6 5 5 5 5 4 4 3 3 3 3 3 3 4 3 3 3 2 1 1 1 2 3 3 4 5 5 5 5 5 5 6 6 7 7 7 8 9 10 9 9 9 9 9 10 9 10 10 10 10 10 9 10 11 10 10 9 9 10 9 9 8 8 9 11 12 15 16 18 20
14 14 15 15 14 13 12 11 11 11 10 10 9 8 7 6 5 5 5 5 4 3 4 3 3 3 3 3 4 2 3 3 2 1 1 1 2 2 4 4 4 5 5 5 6 6 6 6 7 7 8 8 8 9 10 10 9 10 10 11 11 9 10 10 10 10 10 10 10 10 9 9 9 9 9 9 9 9 9 10 13 14 16 17 20
13 15 14 14 12 12 11 11 12 11 10 10 9 8 7 6 5 5 5 4 4 4 3 3 3 3 3 4 3 3 3 3 1 0 1 2 2 3 3 4 4 5 5 6 6 6 6 6 8 9 8 8 8 9 10 10 10 10 11 13 12 12 10 10 10 10 10 10 10 9 8 9 9 9 9 9 9 9 9 9 8 7 8 12 14
13 14 15 14 14 12 11 11 11 11 10 9 8 8 7 7 6 6 5 5 5 5 4 4 4 3 4 4 4 2 2 2 1 1 1 2 3 3 4 4 4 4 5 6 6 6 7 9 9 9 9 8 8 8 8 9 10 13 13 11 10 12 14 12 12 12 11 9 9 8 9 8 9 8 8 8 9 9 9 9 8 8 8 10 14
14 15 16 15 15 13 13 13 12 12 10 10 9 9 8 7 7 7 6 6 6 5 5 5 4 4 5 4 3 2 2 2 0 0 1 2 3 3 4 4 4 4 5 5 6 8 8 7 8 7 9 9 8 7 8 8 11 11 8 11 11 12 12 12 13 13 10 8 7 7 7 7 8 8 8 7 9 9 9 9 9 9 8 7 9
15 16 16 16 15 14 14 13 12 12 11 10 9 9 8 7 7 7 6 6 6 6 5 5 5 4 4 4 3 3 2 1 1 0 1 2 3 4 4 4 4 4 5 6 7 8 8 7 7 7 6 8 8 8 7 7 7 9 14 14 8 6 7 10 12 9 6 4 5 6 8 9 9 9 8 9 9 10 9 9 9 9 9 9 9
15 16 15 15 15 14 13 13 12 12 11 11 9 9 8 7 7 7 7 6 4 3 3 4 4 4 4 4 3 3 3 2 2 1 1 2 3 4 4 4 4 4 5 6 7 8 7 8 7 7 8 7 8 7 6 4 7 9 10 11 11 15 5 5 2 3 7 9 12 14 12 10 11 9 9 9 9 10 9 9 10 9 8 9 10
13 14 15 16 13 13 13 13 13 12 11 11 9 9 8 7 5 6 4 4 5 4 3 3 3 4 4 4 4 3 3 3 2 2 3 3 4 4 4 4 4 4 4 6 7 8 7 7 6 7 7 9 6 7 5 5 5 8 8 6 12 9 13 3 10 9 8 14 13 9 6 7 9 10 9 10 10 9 9 10 10 9 10 10 10
14 14 15 15 11 15 14 15 12 12 11 11 11 10 9 8 6 5 4 3 2 3 4 4 5 5 4 5 5 4 4 3 3 3 3 4 4 4 4 4 4 5 4 6 7 7 7 7 7 7 7 7 9 7 6 5 5 4 4 7 7 6 7 12 15 16 5 3 4 10 12 13 11 9 9 10 10 10 10 10 10 10 11 11 11
14 14 13 14 13 14 14 14 11 12 11 13 12 10 9 9 9 8 7 6 6 7 7 7 6 6 6 4 4 4 4 3 3 3 4 4 4 4 4 4 5 5 5 6 7 7 8 7 6 6 8 8 8 8 7 5 5 5 6 7 7 8 13 13 9 12 8 9 13 8 8 8 9 10 10 11 11 11 10 11 11 11 12 12 12
14 13 13 14 15 14 14 15 12 11 11 12 14 10 10 9 10 9 8 8 7 6 6 5 5 5 4 4 3 3 4 4 4 4 4 4 4 4 4 4 5 5 6 6 7 8 7 7 6 6 7 7 7 8 8 7 6 6 7 8 10 10 11 10 10 11 18 9 6 9 9 9 10 11 11 10 10 10 10 10 11 11 12 12 12
14 13 13 14 16 15 16 16 12 12 11 12 14 11 10 10 10 9 8 7 7 6 7 5 4 4 4 4 3 3 4 4 4 5 5 5 4 4 4 5 5 6 6 7 8 8 7 6 7 8 8 7 7 7 8 7 6 7 6 8 9 10 11 12 13 12 14 18 20 5 8 9 9 9 10 11 12 12 12 10 10 12 9 10 11
14 14 14 14 14 14 15 15 14 13 12 14 13 12 10 10 9 8 8 6 6 5 5 5 5 4 4 4 3 3 3 4 5 4 5 5 4 4 4 5 5 6 6 7 8 8 8 8 9 8 8 8 7 8 8 8 7 8 7 8 8 9 9 10 11 11 11 13 21 16 11 7 10 12 10 11 9 8 9 12 12 12 13 12 11
13 13 13 13 14 14 16 17 16 13 12 14 13 13 12 10 10 10 10 8 7 6 5 6 5 5 5 5 4 4 4 5 5 5 5 5 4 4 5 5 6 7 7 8 9 9 9 9 9 9 8 9 7 8 8 8 8 8 8 8 9 8 9 9 10 10 12 12 15 21 18 16 16 11 8 10 12 12 12 12 13 13 12 12 12
12 14 13 14 14 15 16 17 17 13 13 15 14 14 13 11 10 11 11 10 9 8 7 7 6 6 5 5 5 5 5 5 4 5 5 5 4 5 5 5 6 7 8 8 8 7 7 7 7 9 9 10 8 9 10 10 9 9 10 9 9 9 9 10 10 10 11 12 13 17 19 18 17 20 9 7 11 13 11 10 12 12 12 12 12
Wind_Direction
60 50 41 42 3 20 25 25 31 35 41 42 44 50 52 56 59 63 66 70 76 77 79 74 68 63 66 63 61 56 57 63 60 56 57 63 58 52 45 27 23 10 5 358 1 354 350 347 348 1 355 357 355 358 348 347 344 344 343 344 345 344 342 343 341 345 346 352 350 344 337 325 314 304 294 292 300 325 340 319 295 287 275 262 278
69 55 62 41 22 30 30 33 34 38 40 43 44 45 47 49 54 55 59 66 69 74 74 75 69 69 65 65 66 64 60 58 62 63 64 62 59 55 47 42 37 30 14 6 7 357 350 344 342 348 347 352 357 348 350 341 343 337 339 340 341 342 341 339 340 336 339 341 343 341 324 309 297 285 284 287 298 314 152 260 281 280 282 162 216
66 76 78 61 47 31 40 40 40 42 44 45 46 47 50 50 53 50 50 59 65 64 63 67 69 66 65 64 65 65 63 60 59 59 58 58 54 47 44 42 35 31 27 19 14 8 360 349 350 359 358 358 357 356 352 348 339 340 335 336 339 338 337 336 334 334 331 332 334 328 305 282 269 259 252 263 285 294 151 206 235 249 275 152 256
79 71 62 118 69 36 45 45 46 47 49 50 52 50 48 50 54 51 49 51 56 56 56 55 54 52 57 60 58 57 58 58 59 56 54 52 49 42 40 37 36 33 22 26 22 15 9 2 3 8 12 7 4 2 353 350 344 340 331 333 332 333 332 329 330 330 329 326 321 321 298 293 258 206 227 243 261 287 310 196 224 236 260 274 259
89 69 72 50 59 46 41 51 50 50 53 56 56 57 57 56 55 52 52 53 53 53 49 53 53 48 46 51 54 49 48 46 48 48 45 47 46 39 37 36 32 28 23 25 24 20 17 13 11 10 16 14 8 9 8 9 4 354 349 341 335 330 329 331 327 328 325 315 312 299 287 284 298 146 191 289 319 304 323 205 231 245 250 258 265
76 71 66 63 60 48 39 49 54 57 59 60 61 61 64 62 60 57 57 60 57 58 56 56 55 53 47 45 48 48 48 46 44 44 41 40 44 41 34 34 33 28 23 21 22 21 21 18 13 10 16 19 16 14 13 11 8 4 1 357 343 336 332 328 327 323 318 312 285 270 278 294 325 75 110 15 326 307 300 267 266 266 255 247 258
73 58 58 57 58 44 40 51 59 62 64 65 65 67 68 65 64 61 62 64 63 63 63 61 60 59 57 56 54 54 52 51 49 47 45 40 38 41 36 33 32 28 21 20 19 22 22 23 19 17 19 27 19 15 12 9 6 5 1 1 354 345 336 335 327 322 316 302 300 312 305 320 345 346 42 32 354 329 305 295 289 284 279 268 264
87 85 69 67 47 44 42 53 57 62 64 65 67 68 67 67 65 67 67 70 64 63 62 61 60 59 59 58 56 54 52 50 47 46 45 44 41 38 36 34 32 29 26 21 18 22 27 27 26 24 25 27 16 12 13 10 8 6 3 360 360 356 350 335 328 320 310 291 286 293 297 313 305 311 329 26 5 347 328 313 302 295 288 278 269
106 85 83 78 68 42 46 51 59 64 65 66 68 68 68 67 67 68 68 67 65 63 63 63 61 60 59 57 55 53 50 47 45 43 42 43 42 39 37 35 32 30 27 23 21 22 26 27 23 22 23 22 16 10 11 9 7 7 4 2 360 2 359 350 336 320 297 286 299 294 309 301 310 305 300 25 10 323 316 315 298 293 299 331 304
109 92 70 71 60 44 52 55 59 61 65 67 67 68 68 67 68 67 68 69 67 65 64 64 63 62 60 59 56 54 52 48 45 42 40 39 39 39 37 35 33 30 27 25 21 19 20 21 21 21 21 20 17 14 13 9 5 3 3 1 359 359 359 356 340 301 284 292 303 308 309 355 300 300 303 318 319 298 307 318 305 300 295 303 282
113 106 96 82 51 46 51 55 60 61 62 64 65 66 66 66 66 66 67 68 68 67 66 65 65 63 62 60 58 57 55 51 48 45 43 40 38 36 36 33 32 29 28 25 21 19 18 18 17 16 19 17 16 14 13 10 6 6 6 6 2 359 358 351 328 307 306 308 301 305 305 292 278 270 320 338 270 284 293 298 296 291 286 288 280
116 105 90 83 66 42 50 53 56 63 67 66 66 64 63 65 65 66 67 68 68 68 67 67 66 65 65 64 62 60 57 55 51 49 46 44 41 39 36 33 30 29 28 26 22 18 18 17 16 15 17 14 14 12 9 7 6 6 5 5 5 1 357 344 318 305 299 297 301 299 296 298 298 302 19 308 282 283 277 277 283 287 290 279 274
103 99 98 93 79 48 47 54 58 61 64 67 69 67 67 66 65 65 64 64 65 65 66 67 66 65 64 64 63 61 60 56 54 51 47 45 43 40 37 33 30 29 27 24 21 17 15 15 15 14 14 12 11 9 7 4 1 2 2 2 2 358 355 336 321 315 304 301 298 296 290 288 286 276 278 284 277 276 280 280 282 287 289 287 278
120 106 95 92 87 69 54 52 56 62 63 65 67 69 69 68 68 66 65 63 62 62 63 63 63 64 64 63 62 61 60 58 57 54 51 47 44 41 38 34 31 28 25 23 20 15 12 11 9 9 8 6 4 360 360 359 358 357 356 357 358 357 354 340 332 312 302 297 294 293 292 290 280 16 16 317 287 279 280 282 281 282 285 287 283
111 96 104 117 115 96 71 57 58 59 62 64 65 68 69 68 68 67 67 66 63 62 62 60 59 60 60 61 61 61 60 60 58 55 52 48 44 42 40 38 34 30 26 25 20 16 13 8 7 4 1 358 355 352 349 349 350 350 352 350 351 351 352 338 328 313 306 298 290 286 279 271 287 2 330 293 287 284 284 284 284 283 281 281 280
109 114 113 109 116 120 106 84 69 63 65 64 65 65 67 67 66 66 66 67 65 64 61 59 58 57 57 56 55 54 54 54 54 53 50 46 43 39 38 36 34 31 28 24 22 20 16 12 7 3 359 355 350 346 343 342 341 344 343 345 344 341 338 330 313 307 298 291 290 291 293 291 300 270 255 276 282 285 287 290 289 287 285 281 279
107 117 119 111 112 113 113 107 101 95 72 63 62 64 66 68 66 66 65 65 66 64 62 61 58 57 53 51 51 49 49 48 47 46 45 41 39 35 32 32 31 29 26 23 21 18 14 11 7 2 359 355 348 342 339 337 338 341 342 339 338 333 324 318 294 292 289 286 287 287 281 288 288 342 276 284 287 288 289 293 295 294 293 287 280
137 144 136 133 138 138 130 142 158 140 119 97 66 57 65 66 65 63 63 63 62 60 59 58 56 54 50 49 50 50 47 44 43 41 39 35 30 28 24 26 23 21 20 18 18 16 12 9 4 359 355 350 343 337 333 331 333 336 337 335 331 322 311 300 283 272 281 300 294 285 283 281 11 5 327 301 296 292 291 289 291 293 294 294 291
158 160 146 159 153 159 150 147 147 133 130 106 102 73 64 70 70 68 65 64 63 60 59 55 51 50 48 50 62 78 73 57 52 52 49 45 32 27 23 24 22 18 12 10 10 8 5 2 359 356 353 348 340 334 326 324 326 328 329 328 319 309 299 280 265 305 321 306 297 294 291 343 345 334 311 298 291 290 291 290 287 287 289 291 290
163 168 166 168 168 165 167 158 150 139 118 105 103 99 80 75 72 70 68 66 63 64 64 61 66 46 51 41 348 75 77 75 49 54 50 49 43 25 19 20 21 17 11 8 7 3 359 354 353 350 348 345 340 331 318 321 324 322 320 317 309 305 289 277 320 313 296 292 294 294 308 11 353 329 310 297 295 291 288 288 285 283 283 285 287
171 182 184 176 175 176 177 159 144 132 119 114 106 103 118 134 104 91 82 65 64 64 58 67 73 78 30 31 206 43 56 42 40 20 27 29 47 17 11 11 12 10 6 3 4 5 359 353 349 345 341 338 332 317 306 339 329 323 314 301 296 292 307 337 323 314 301 294 292 287 333 356 343 323 312 303 292 288 287 284 284 284 283 281 281
181 184 189 178 179 178 175 165 148 140 134 128 132 142 138 151 109 111 82 88 58 58 57 37 43 31 12 36 42 43 35 47 32 19 10 11 26 14 4 4 6 4 0 355 357 358 356 353 353 348 339 333 316 326 342 337 321 323 309 294 283 331 343 333 321 303 301 290 288 292 352 337 327 320 308 306 300 296 292 287 284 282 281 279 278
186 185 185 183 184 174 181 167 159 147 141 137 149 150 163 144 140 129 137 109 81 50 48 44 33 27 19 27 44 38 20 50 34 356 330 302 51 359 1 358 3 4 357 347 355 358 350 351 351 348 341 349 343 344 346 334 333 332 323 325 345 339 332 317 309 305 304 308 303 313 323 318 306 303 303 300 297 294 292 288 283 279 276 276 276
188 186 177 183 181 177 179 164 158 158 156 152 164 168 166 163 162 158 140 144 120 105 74 45 41 28 16 27 40 29 11 37 96 199 305 11 18 11 4 358 8 10 356 348 355 360 346 353 351 348 346 354 348 342 340 338 333 336 334 333 335 334 324 319 310 311 305 308 300 303 311 307 301 297 298 297 297 296 293 291 290 284 277 274 274
188 178 175 181 181 179 170 164 165 164 174 157 175 171 168 170 161 167 152 145 152 119 104 83 56 34 22 42 36 33 28 38 26 18 15 15 12 7 5 6 5 360 358 356 358 350 350 350 351 350 350 346 343 338 336 332 332 331 331 331 328 326 320 316 314 308 305 300 299 306 315 313 304 297 293 293 292 292 293 292 291 291 286 278 271
181 185 181 176 181 177 172 166 170 170 175 172 180 145 178 178 171 169 166 152 137 121 114 107 98 48 48 16 55 57 38 48 31 26 15 17 14 7 1 5 358 358 359 353 358 350 347 352 351 350 348 343 338 333 331 326 327 327 322 323 321 319 317 313 308 305 301 297 298 304 303 300 294 291 290 290 289 289 290 291 291 290 290 288 281
185 189 179 178 177 177 174 168 172 171 177 180 165 168 192 176 172 167 177 157 153 156 121 132 86 71 39 50 40 50 53 43 35 28 24 17 13 6 358 359 359 358 356 351 354 350 346 348 350 347 341 340 337 334 326 328 322 320 316 316 316 314 308 307 305 303 300 296 291 292 289 286 289 291 291 290 289 288 287 287 287 287 286 286 286
184 186 182 177 176 176 173 170 174 172 173 179 183 179 181 173 153 139 204 104 163 141 136 94 130 105 62 45 22 68 56 56 37 32 20 19 10 4 356 360 358 357 355 348 353 348 343 344 342 342 340 336 336 331 333 329 325 319 319 316 313 308 308 306 300 296 294 293 290 286 283 287 291 292 290 288 286 285 285 286 285 284 284 284 284
189 187 180 179 176 174 174 178 173 176 174 178 192 179 171 173 167 177 154 159 170 148 121 153 141 112 91 74 39 73 65 64 47 31 13 18 5 4 356 3 353 357 355 349 353 346 341 339 337 338 334 331 329 328 330 322 321 322 317 313 310 308 304 302 300 298 293 292 291 290 293 289 284 287 288 287 286 286 284 283 283 282 281 280 282
194 186 179 181 173 173 178 182 175 178 173 179 188 179 173 171 173 174 145 176 147 130 168 150 129 128 110 87 71 58 59 47 42 18 15 7 1 1 359 1 350 356 354 348 349 342 335 329 329 329 326 325 322 321 320 318 317 313 310 310 309 307 303 302 300 297 296 292 290 287 282 279 276 282 286 286 285 284 284 282 281 282 282 280 279
189 189 182 179 173 173 180 182 177 176 172 180 183 183 174 174 174 165 168 163 148 161 168 146 130 110 102 90 82 60 61 55 41 24 3 360 359 3 355 354 348 354 353 342 339 329 319 314 317 316 318 314 311 315 314 312 310 307 306 306 308 304 302 301 300 298 296 294 291 289 287 280 273 268 272 279 281 281 280 280 280 280 280 281 280
191 191 182 177 171 177 177 180 178 173 174 183 178 181 177 172 169 175 161 149 159 168 150 144 135 114 103 90 75 69 61 81 58 38 360 352 5 358 348 351 345 350 344 337 326 315 305 304 306 306 301 300 308 305 307 306 305 306 308 305 304 304 301 302 300 296 292 290 289 289 288 285 278 272 267 271 277 279 280 280 280 279 280 279 280
195 188 181 176 176 175 176 178 177 169 184 182 173 181 174 165 179 177 151 152 168 162 152 140 134 121 111 95 83 83 85 61 55 40 359 3 6 349 349 341 340 349 333 323 317 313 310 312 313 312 306 312 303 307 309 305 305 305 303 304 305 301 300 298 294 290 289 290 289 286 287 288 287 282 271 263 266 272 278 280 281 280 280 281 281
187 184 179 180 172 170 171 171 178 174 184 182 177 176 172 176 177 173 152 170 162 153 146 152 145 140 126 118 112 91 73 70 36 28 14 8 351 343 340 333 342 343 324 322 325 318 311 315 321 320 319 313 315 314 314 309 306 303 302 302 298 300 302 297 295 291 288 284 285 283 282 282 284 286 288 281 273 269 274 277 279 280 280 281 281
182 181 183 177 169 168 167 167 176 173 179 182 179 177 170 173 178 171 164 177 149 154 158 155 165 154 145 131 117 102 94 69 43 25 12 356 337 332 333 332 347 328 323 325 315 312 312 323 325 322 317 315 315 314 311 307 307 306 302 303 296 294 291 288 289 289 284 282 279 279 280 282 283 286 288 293 285 278 270 273 280 282 283 284 284
187 180 175 172 172 167 166 163 170 173 174 176 176 168 169 172 179 169 150 167 155 156 160 166 164 150 139 129 124 115 84 84 66 43 349 336 322 323 323 339 335 327 323 314 312 316 324 322 319 316 318 315 315 313 312 306 303 304 303 300 299 293 289 287 283 279 279 279 278 279 278 280 283 286 293 290 287 282 275 271 274 275 277 278 281
186 178 174 172 172 167 167 167 174 174 174 173 172 170 175 175 170 172 144 163 161 164 162 165 162 158 149 148 132 122 122 115 108 112 284 311 327 324 321 332 332 321 311 311 314 322 323 317 310 315 313 312 312 310 312 310 305 299 296 289 286 287 282 278 275 278 280 275 275 274 276 276 279 278 278 279 281 282 279 274 272 271 269 271 273
186 180 174 174 174 169 172 175 174 174 174 172 173 173 172 169 169 161 166 164 167 160 167 166 174 167 149 153 129 148 145 133 136 138 298 316 313 320 320 321 318 313 307 312 316 314 308 307 311 315 316 314 313 316 312 308 306 302 297 293 286 280 277 274 270 270 272 272 268 269 273 280 278 276 275 275 279 281 282 278 276 273 264 258 262
186 181 173 174 171 168 171 175 175 175 172 168 170 171 170 173 169 162 162 166 166 181 166 176 173 162 167 128 149 181 151 153 146 163 325 342 334 323 316 315 310 300 305 311 313 309 305 315 312 308 308 308 304 301 300 304 304 299 293 289 284 275 272 268 270 267 260 262 270 270 271 271 270 271 274 275 275 278 280 283 281 280 277 273 269
184 181 177 174 174 167 170 173 177 174 170 169 169 173 173 177 173 171 168 182 180 170 181 185 170 174 149 160 155 185 147 146 142 27 338 333 328 312 304 299 289 291 302 308 307 310 316 311 306 309 307 302 295 294 300 305 300 293 285 281 280 281 273 270 268 262 259 262 270 275 272 269 271 272 273 276 276 277 279 278 278 280 279 271 268
184 181 180 179 178 172 170 175 176 175 174 173 175 179 180 180 181 182 182 177 181 172 176 181 175 179 152 165 160 178 150 170 183 324 332 320 293 287 286 287 283 294 296 295 303 304 302 298 298 300 301 301 300 302 303 306 302 297 297 288 286 272 262 261 258 254 256 264 267 274 276 278 279 281 285 286 284 282 282 281 278 279 277 278 278
187 184 184 181 179 175 175 173 175 178 182 179 177 184 185 187 178 180 179 166 169 176 183 179 180 161 160 171 174 163 175 187 188 275 304 285 283 286 285 287 297 294 299 295 290 290 289 289 296 299 296 299 297 302 301 309 306 324 324 318 289 273 280 272 264 274 265 245 265 285 288 285 283 288 286 286 285 281 283 284 283 280 284 288 288
182 186 183 178 180 178 179 177 178 180 183 180 178 185 183 181 184 172 176 157 163 160 152 138 149 160 168 174 178 179 180 188 191 211 251 266 267 272 276 287 297 298 296 296 294 293 293 293 293 293 303 295 288 286 294 314 305 314 298 289 322 330 329 273 189 33 353 319 294 280 278 278 279 279 284 284 281 281 279 280 280 278 281 284 284
184 186 185 183 182 184 183 180 180 180 180 181 181 179 170 145 129 139 138 143 161 151 161 174 180 181 193 188 189 191 184 188 185 209 230 234 251 268 278 282 288 293 290 291 291 287 285 286 290 290 290 293 295 298 300 302 300 322 329 344 305 304 311 333 336 292 289 274 265 270 275 284 287 287 285 278 280 281 283 285 282 286 289 287 285
188 186 185 185 184 185 182 180 178 179 180 176 176 163 142 143 134 123 127 135 109 165 185 200 196 192 196 190 192 180 179 179 194 215 230 244 251 257 268 283 286 286 285 280 278 277 283 285 282 278 279 288 294 293 294 284 279 260 274 318 322 306 291 310 335 302 233 289 290 296 281 273 269 273 273 274 278 277 280 277 279 280 280 280 281
191 189 186 186 183 183 181 180 178 178 181 174 172 161 163 165 166 170 177 186 192 190 201 196 183 189 192 184 173 164 170 180 200 217 223 242 244 247 257 270 276 276 273 272 276 280 276 273 273 276 277 275 283 293 289 285 275 261 242 233 233 269 306 311 326 305 308 277 274 262 280 274 275 276 273 274 274 276 277 281 281 283 284 285 283
191 183 183 185 185 181 181 181 179 179 180 174 173 168 171 181 183 186 188 187 190 193 191 184 179 164 161 160 165 174 182 195 202 212 224 228 241 251 256 260 268 271 272 271 269 271 273 272 272 268 271 278 278 283 290 299 295 265 251 242 244 254 264 286 295 309 306 301 222 275 274 267 269 267 268 270 274 276 275 274 275 275 281 279 278
183 180 182 185 186 182 181 182 180 180 177 173 175 178 178 183 183 187 191 190 191 178 168 156 154 151 154 163 180 192 192 196 207 212 218 226 234 250 252 258 262 267 266 265 266 267 271 272 265 265 267 266 270 273 287 289 287 289 279 274 268 263 257 261 262 272 288 301 301 254 253 267 267 263 269 271 273 273 277 277 281 283 278 278 286
182 182 181 183 183 182 182 181 183 181 176 174 175 181 183 182 180 181 185 189 180 171 153 158 159 167 175 177 190 204 204 209 211 215 215 226 233 248 254 257 262 265 263 261 262 263 267 269 268 267 266 271 270 275 278 279 280 281 289 279 275 269 270 263 261 259 262 290 290 292 288 281 276 274 273 270 265 265 278 285 284 282 282 278 278
182 180 177 178 181 182 183 184 187 182 176 176 175 178 182 179 180 184 183 181 177 177 175 169 175 175 180 187 191 203 209 206 204 206 212 219 228 238 245 254 261 260 259 260 263 266 266 264 263 264 268 271 270 269 268 274 275 277 274 279 276 276 272 268 261 260 262 250 270 295 299 302 296 281 280 282 280 277 277 275 280 280 280 283 280
178 178 177 180 181 184 185 187 188 182 176 177 175 179 181 183 184 185 183 181 175 176 174 180 177 177 187 191 197 202 199 201 198 202 205 211 220 230 243 255 260 264 263 264 262 267 271 274 275 273 270 268 269 269 270 269 270 268 267 266 265 265 263 269 270 270 273 275 281 279 289 293 292 292 278 267 276 278 272 269 268 272 274 273 275